| time (UTC) | temp F | wind direction | speed MPH | gust MPH | rain 1hr in | rain 24hr in | rain mn in | humidity % | barometer mb |
| 20260502151516 | 53 | 0.0 | 0.0 | 0.00 | 0.00 | 0.00 | 35 | 1021.3 | |
| 20260502150518 | 52 | 0.0 | 0.0 | 0.00 | 0.00 | 0.00 | 37 | 1021.3 | |
| 20260502130518 | 37 | 0.0 | 2.0 | 0.00 | 0.00 | 0.00 | 58 | 1020.8 | |
| 20260502123518 | 37 | 0.0 | 0.0 | 0.00 | 0.00 | 0.00 | 59 | 1020.7 | |
| 20260502122517 | 37 | 0.0 | 0.0 | 0.00 | 0.00 | 0.00 | 59 | 1020.6 | |
| 20260502121538 | 37 | 0.0 | 0.0 | 0.00 | 0.00 | 0.00 | 59 | 1020.6 | |
| 20260502120538 | 37 | 0.0 | 0.0 | 0.00 | 0.00 | 0.00 | 59 | 1020.6 | |
| 20260502115538 | 38 | 0.0 | 0.0 | 0.00 | 0.00 | 0.00 | 58 | 1020.6 | |
| 20260502114517 | 38 | 0.0 | 0.0 | 0.00 | 0.00 | 0.00 | 57 | 1020.6 | |
| 20260502113558 | 39 | 0.0 | 0.0 | 0.00 | 0.00 | 0.00 | 57 | 1020.7 | |
| 20260502112518 | 39 | 0.0 | 0.0 | 0.00 | 0.00 | 0.00 | 57 | 1020.7 | |
| 20260502111517 | 39 | 0.0 | 0.0 | 0.00 | 0.00 | 0.00 | 57 | 1020.7 | |
| 20260502110518 | 39 | 270 | 1.0 | 3.0 | 0.00 | 0.00 | 0.00 | 57 | 1020.8 |
| 20260502105518 | 40 | 270 | 1.0 | 4.0 | 0.00 | 0.00 | 0.00 | 57 | 1020.8 |
| 20260502104517 | 40 | 270 | 1.0 | 3.0 | 0.00 | 0.00 | 0.00 | 57 | 1020.8 |
| 20260502103517 | 40 | 270 | 1.0 | 3.0 | 0.00 | 0.00 | 0.00 | 57 | 1020.7 |
| 20260502102517 | 41 | 0.0 | 2.0 | 0.00 | 0.00 | 0.00 | 58 | 1020.7 | |
| 20260502101517 | 41 | 0.0 | 1.0 | 0.00 | 0.00 | 0.00 | 58 | 1020.6 | |
| 20260502100517 | 41 | 270 | 2.0 | 4.0 | 0.00 | 0.00 | 0.00 | 59 | 1020.5 |
| 20260502091517 | 41 | 0.0 | 0.0 | 0.00 | 0.00 | 0.00 | 58 | 1020.6 | |
| 20260502090517 | 41 | 0.0 | 0.0 | 0.00 | 0.00 | 0.00 | 59 | 1020.6 | |
| 20260502071517 | 42 | 0.0 | 0.0 | 0.00 | 0.00 | 0.00 | 56 | 1020.3 | |
| 20260502070517 | 42 | 0.0 | 0.0 | 0.00 | 0.00 | 0.00 | 56 | 1020.3 | |
| 20260502065557 | 43 | 0.0 | 0.0 | 0.00 | 0.00 | 0.00 | 55 | 1020.4 | |
| 20260502064516 | 44 | 0.0 | 0.0 | 0.00 | 0.00 | 0.00 | 54 | 1020.4 | |
| 20260502063516 | 44 | 0.0 | 0.0 | 0.00 | 0.00 | 0.00 | 53 | 1020.3 | |
| 20260502062517 | 43 | 0.0 | 0.0 | 0.00 | 0.00 | 0.00 | 53 | 1020.4 | |
| 20260502061517 | 43 | 0.0 | 0.0 | 0.00 | 0.00 | 0.00 | 55 | 1020.4 | |
| 20260502060517 | 43 | 0.0 | 0.0 | 0.00 | 0.00 | 0.00 | 55 | 1020.3 | |
| 20260502055537 | 44 | 0.0 | 0.0 | 0.00 | 0.00 | 0.00 | 55 | 1020.3 | |
| 20260502054517 | 44 | 0.0 | 0.0 | 0.00 | 0.00 | 0.00 | 54 | 1020.3 | |
| 20260502053517 | 44 | 0.0 | 0.0 | 0.00 | 0.00 | 0.00 | 55 | 1020.2 | |
| 20260502052517 | 44 | 0.0 | 0.0 | 0.00 | 0.00 | 0.00 | 54 | 1020.2 | |
| 20260502051517 | 44 | 0.0 | 0.0 | 0.00 | 0.00 | 0.00 | 55 | 1020.2 | |
| 20260502050517 | 45 | 0.0 | 0.0 | 0.00 | 0.00 | 0.00 | 54 | 1020.2 | |
| 20260502045537 | 45 | 0.0 | 0.0 | 0.00 | 0.00 | 0.00 | 54 | 1020.2 | |
| 20260502044516 | 45 | 0.0 | 0.0 | 0.00 | 0.00 | 0.00 | 54 | 1020.2 | |
| 20260502043517 | 46 | 248 | 1.0 | 2.0 | 0.00 | 0.00 | 0.00 | 54 | 1020.1 |
| 20260502042517 | 46 | 248 | 1.0 | 2.0 | 0.00 | 0.00 | 0.00 | 55 | 1020.1 |
| 20260502041516 | 46 | 248 | 1.0 | 2.0 | 0.00 | 0.00 | 0.00 | 52 | 1020.1 |
| 20260502040517 | 47 | 0.0 | 0.0 | 0.00 | 0.00 | 0.00 | 52 | 1020.0 | |
| 20260502035516 | 48 | 0.0 | 0.0 | 0.00 | 0.00 | 0.00 | 50 | 1019.9 | |
| 20260502034516 | 49 | 0.0 | 0.0 | 0.00 | 0.00 | 0.00 | 48 | 1019.7 | |
| 20260502033517 | 50 | 0.0 | 1.0 | 0.00 | 0.00 | 0.00 | 46 | 1019.7 | |
| 20260502032537 | 52 | 0.0 | 0.0 | 0.00 | 0.00 | 0.00 | 42 | 1019.5 | |
| 20260502031516 | 53 | 0.0 | 1.0 | 0.00 | 0.00 | 0.00 | 41 | 1019.4 | |
| 20260502030537 | 54 | 248 | 1.0 | 2.0 | 0.00 | 0.00 | 0.00 | 40 | 1019.2 |
| 20260502025517 | 55 | 0.0 | 0.0 | 0.00 | 0.00 | 0.00 | 37 | 1019.2 | |
| 20260502024516 | 56 | 0.0 | 1.0 | 0.00 | 0.00 | 0.00 | 35 | 1019.1 | |
| 20260502023536 | 57 | 0.0 | 2.0 | 0.00 | 0.00 | 0.00 | 33 | 1019.0 | |
| 20260502022516 | 58 | 0.0 | 2.0 | 0.00 | 0.00 | 0.00 | 32 | 1018.9 | |
| 20260502021516 | 59 | 248 | 2.0 | 5.0 | 0.00 | 0.00 | 0.00 | 32 | 1018.8 |
| 20260502020516 | 59 | 248 | 3.0 | 7.0 | 0.00 | 0.00 | 0.00 | 31 | 1018.7 |
| 20260502015518 | 60 | 248 | 4.0 | 10.0 | 0.00 | 0.00 | 0.00 | 30 | 1018.7 |
| 20260502014518 | 61 | 248 | 5.0 | 9.0 | 0.00 | 0.00 | 0.00 | 31 | 1018.6 |
| 20260502013518 | 61 | 270 | 5.0 | 11.0 | 0.00 | 0.00 | 0.00 | 31 | 1018.5 |
| 20260502012518 | 62 | 248 | 5.0 | 10.0 | 0.00 | 0.00 | 0.00 | 32 | 1018.4 |
| 20260502011518 | 63 | 270 | 4.0 | 8.0 | 0.00 | 0.00 | 0.00 | 30 | 1018.4 |
| 20260502010518 | 64 | 293 | 6.0 | 13.0 | 0.00 | 0.00 | 0.00 | 31 | 1018.4 |
| 20260502005518 | 65 | 293 | 6.0 | 11.0 | 0.00 | 0.00 | 0.00 | 24 | 1018.4 |
| 20260502004518 | 65 | 293 | 5.0 | 10.0 | 0.00 | 0.00 | 0.00 | 24 | 1018.4 |
| 20260502003518 | 66 | 293 | 5.0 | 12.0 | 0.00 | 0.00 | 0.00 | 24 | 1018.4 |
| 20260502002518 | 66 | 315 | 4.0 | 8.0 | 0.00 | 0.00 | 0.00 | 24 | 1018.5 |
| 20260502001523 | 66 | 315 | 6.0 | 12.0 | 0.00 | 0.00 | 0.00 | 24 | 1018.5 |
| 20260502000518 | 66 | 0 | 5.0 | 10.0 | 0.00 | 0.00 | 0.00 | 24 | 1018.6 |
| 20260501235518 | 66 | 270 | 4.0 | 8.0 | 0.00 | 0.00 | 0.00 | 24 | 1018.6 |
| 20260501234538 | 66 | 293 | 7.0 | 10.0 | 0.00 | 0.00 | 0.00 | 25 | 1018.6 |
| 20260501233518 | 66 | 315 | 7.0 | 13.0 | 0.00 | 0.00 | 0.00 | 24 | 1018.7 |
| 20260501232538 | 66 | 270 | 6.0 | 11.0 | 0.00 | 0.00 | 0.00 | 26 | 1018.6 |
| 20260501231518 | 66 | 293 | 8.0 | 15.0 | 0.00 | 0.00 | 0.00 | 25 | 1018.8 |
| 20260501230518 | 66 | 270 | 6.0 | 14.0 | 0.00 | 0.00 | 0.00 | 26 | 1018.8 |
| 20260501225518 | 65 | 315 | 8.0 | 16.0 | 0.00 | 0.00 | 0.00 | 25 | 1018.9 |
| 20260501224518 | 65 | 315 | 9.0 | 18.0 | 0.00 | 0.00 | 0.00 | 25 | 1018.9 |
| 20260501223518 | 65 | 270 | 8.0 | 15.0 | 0.00 | 0.00 | 0.00 | 26 | 1019.0 |
| 20260501222517 | 65 | 293 | 8.0 | 17.0 | 0.00 | 0.00 | 0.00 | 26 | 1019.1 |
| 20260501221518 | 65 | 270 | 8.0 | 17.0 | 0.00 | 0.00 | 0.00 | 26 | 1019.2 |
| 20260501220518 | 65 | 293 | 8.0 | 16.0 | 0.00 | 0.00 | 0.00 | 27 | 1019.3 |
| 20260501215518 | 65 | 293 | 8.0 | 17.0 | 0.00 | 0.00 | 0.00 | 28 | 1019.4 |
| 20260501214538 | 65 | 293 | 10.0 | 20.0 | 0.00 | 0.00 | 0.00 | 27 | 1019.4 |
| 20260501213518 | 65 | 293 | 9.0 | 16.0 | 0.00 | 0.00 | 0.00 | 27 | 1019.4 |
| 20260501212517 | 65 | 293 | 8.0 | 15.0 | 0.00 | 0.00 | 0.00 | 29 | 1019.6 |
| 20260501211517 | 64 | 270 | 7.0 | 16.0 | 0.00 | 0.00 | 0.00 | 28 | 1019.6 |
| 20260501210517 | 64 | 293 | 8.0 | 15.0 | 0.00 | 0.00 | 0.00 | 28 | 1019.7 |
| 20260501205518 | 65 | 293 | 8.0 | 17.0 | 0.00 | 0.00 | 0.00 | 28 | 1019.7 |
| 20260501204517 | 65 | 270 | 7.0 | 15.0 | 0.00 | 0.00 | 0.00 | 29 | 1019.8 |
| 20260501203558 | 64 | 248 | 7.0 | 15.0 | 0.00 | 0.00 | 0.00 | 27 | 1019.7 |
| 20260501202538 | 64 | 293 | 7.0 | 12.0 | 0.00 | 0.00 | 0.00 | 29 | 1019.8 |
| 20260501201518 | 64 | 270 | 6.0 | 11.0 | 0.00 | 0.00 | 0.00 | 28 | 1019.8 |
| 20260501200517 | 64 | 270 | 6.0 | 10.0 | 0.00 | 0.00 | 0.00 | 28 | 1019.9 |
| 20260501195537 | 63 | 248 | 7.0 | 11.0 | 0.00 | 0.00 | 0.00 | 29 | 1019.9 |
| 20260501194517 | 63 | 270 | 5.0 | 10.0 | 0.00 | 0.00 | 0.00 | 30 | 1020.0 |
| 20260501193517 | 63 | 203 | 5.0 | 10.0 | 0.00 | 0.00 | 0.00 | 29 | 1020.1 |
| 20260501192557 | 63 | 338 | 4.0 | 8.0 | 0.00 | 0.00 | 0.00 | 21 | 1020.2 |
| 20260501191537 | 63 | 158 | 7.0 | 13.0 | 0.00 | 0.00 | 0.00 | 25 | 1020.2 |
| 20260501190537 | 62 | 293 | 1.0 | 6.0 | 0.00 | 0.00 | 0.00 | 22 | 1020.4 |
| 20260501185517 | 61 | 23 | 1.0 | 6.0 | 0.00 | 0.00 | 0.00 | 22 | 1020.5 |
| 20260501184518 | 62 | 0.0 | 3.0 | 0.00 | 0.00 | 0.00 | 24 | 1020.6 | |
| 20260501183517 | 62 | 338 | 2.0 | 6.0 | 0.00 | 0.00 | 0.00 | 21 | 1020.8 |
| 20260501182537 | 62 | 113 | 1.0 | 4.0 | 0.00 | 0.00 | 0.00 | 25 | 1020.8 |
| 20260501181517 | 61 | 158 | 5.0 | 11.0 | 0.00 | 0.00 | 0.00 | 29 | 1020.8 |
| 20260501180537 | 60 | 45 | 1.0 | 6.0 | 0.00 | 0.00 | 0.00 | 30 | 1021.0 |
| 20260501175517 | 59 | 293 | 3.0 | 7.0 | 0.00 | 0.00 | 0.00 | 27 | 1021.0 |
| 20260501174517 | 59 | 0 | 4.0 | 8.0 | 0.00 | 0.00 | 0.00 | 26 | 1021.1 |
| 20260501173517 | 59 | 23 | 1.0 | 6.0 | 0.00 | 0.00 | 0.00 | 27 | 1021.1 |
| 20260501172517 | 59 | 0.0 | 0.0 | 0.00 | 0.00 | 0.00 | 28 | 1021.2 | |
| 20260501171517 | 58 | 293 | 2.0 | 7.0 | 0.00 | 0.00 | 0.00 | 25 | 1021.2 |
| 20260501170517 | 58 | 23 | 2.0 | 6.0 | 0.00 | 0.00 | 0.00 | 28 | 1021.2 |
| 20260501165517 | 58 | 23 | 2.0 | 9.0 | 0.00 | 0.00 | 0.00 | 29 | 1021.1 |
| 20260501164516 | 57 | 0.0 | 0.0 | 0.00 | 0.00 | 0.00 | 31 | 1021.2 | |
| 20260501163516 | 56 | 0.0 | 0.0 | 0.00 | 0.00 | 0.00 | 31 | 1021.2 | |
| 20260501161536 | 55 | 0.0 | 0.0 | 0.00 | 0.00 | 0.00 | 29 | 1021.1 | |
| 20260501160516 | 55 | 0.0 | 0.0 | 0.00 | 0.00 | 0.00 | 31 | 1021.1 | |
| 20260501155516 | 54 | 0.0 | 0.0 | 0.00 | 0.00 | 0.00 | 31 | 1021.1 | |
| 20260501154516 | 54 | 0.0 | 0.0 | 0.00 | 0.00 | 0.00 | 31 | 1021.1 | |
| 20260501153516 | 53 | 0.0 | 0.0 | 0.00 | 0.00 | 0.00 | 34 | 1021.1 | |
| 20260501152516 | 53 | 0.0 | 0.0 | 0.00 | 0.00 | 0.00 | 33 | 1021.1 |